Weather History for Milton, FL

Change the Weather History Date:

Saturday, October 13, 2012

  Actual Average (KNSE) Record (KNSE)
Temperature  
Mean Temperature 72 °F -  
Max Temperature 87 °F 77 °F 88 °F (1997)
Min Temperature 60 °F 57 °F 50 °F (2000)
Cooling Degree Days 7    
Growing Degree Days 22 (Base 50)    
Moisture  
Dew Point 63 °F    
Average Humidity 71    
Maximum Humidity 93    
Minimum Humidity 49    
Precipitation  
Precipitation 0.00 in - - ()
Sea Level Pressure  
Sea Level Pressure 30.15 in    
Wind  
Wind Speed 5 mph (East)    
Max Wind Speed 10 mph    
Max Gust Speed -    
Visibility 10 miles    
Events      
Averages and records for this station are not official NWS values.
T = Trace of Precipitation, MM = Missing Value Source: NWS Daily Summary

Daily Weather History Graph

Daily Weather History Graph

Search for Another Location

Airport:

Trip Planner

Search our weather history database for the weather conditions in past years. The results will help you decide how hot, cold, wet, or windy it might be!

Date:

Astronomy

Oct. 13, 2012 Rise Set
Actual Time 6:49 AM CDT 6:18 PM CDT
Civil Twilight 6:25 AM CDT 6:42 PM CDT
Nautical Twilight 5:57 AM CDT 7:10 PM CDT
Astronomical Twilight 5:29 AM CDT 7:38 PM CDT
Moon 4:45 AM CDT (10/13) 4:57 PM CDT (10/13)
Length of Visible Light 12h 17m
Length of Day
11h 28m
Waning Crescent, 5% of the Moon is Illuminated
Oct 13
Waning Crescent
Oct 15
New
Oct 21
First Quarter
Oct 29
Full
Nov 6
Last Quarter

Hourly Weather History & Observations

Time (CDT) Temp. Heat Index Dew Point Humidity Pressure Visibility Wind Dir Wind Speed Gust Speed Precip Events Conditions
1:56 AM 62.1 °F - 60.1 °F 93% 30.15 in 10.0 mi Calm Calm - N/A   Clear
2:56 AM 60.1 °F - 57.9 °F 93% 30.14 in 10.0 mi NNW 3.5 mph - N/A   Clear
3:56 AM 64.0 °F - 61.0 °F 90% 30.15 in 10.0 mi North 4.6 mph - N/A   Clear
4:56 AM 66.9 °F - 61.0 °F 81% 30.16 in 10.0 mi ENE 6.9 mph - N/A   Clear
5:56 AM 64.9 °F - 61.0 °F 87% 30.17 in 10.0 mi NE 4.6 mph - N/A   Clear
6:56 AM 64.9 °F - 60.1 °F 84% 30.19 in 10.0 mi NE 4.6 mph - N/A   Clear
7:56 AM 68.0 °F - 61.0 °F 78% 30.20 in 10.0 mi ENE 3.5 mph - N/A   Clear
8:56 AM 72.0 °F - 62.1 °F 71% 30.20 in 10.0 mi East 10.4 mph - N/A   Clear
9:56 AM 77.0 °F - 63.0 °F 62% 30.22 in 10.0 mi East 8.1 mph - N/A   Clear
10:56 AM 81.0 °F 82.5 °F 64.0 °F 56% 30.20 in 10.0 mi East 6.9 mph - N/A   Clear
11:56 AM 82.0 °F 83.1 °F 63.0 °F 52% 30.19 in 10.0 mi ESE 8.1 mph - N/A   Clear
12:56 PM 84.9 °F 86.1 °F 64.0 °F 49% 30.16 in 10.0 mi SE 6.9 mph - N/A   Clear
1:56 PM 84.0 °F 85.4 °F 64.0 °F 51% 30.13 in 10.0 mi South 6.9 mph - N/A   Partly Cloudy
2:56 PM 84.0 °F 85.4 °F 64.0 °F 51% 30.12 in 10.0 mi Variable 6.9 mph - N/A   Mostly Cloudy
3:56 PM 82.9 °F 84.0 °F 63.0 °F 51% 30.11 in 10.0 mi South 10.4 mph - N/A   Partly Cloudy
4:56 PM 81.0 °F 82.5 °F 64.0 °F 56% 30.11 in 10.0 mi SSW 6.9 mph - N/A   Clear
5:56 PM 77.0 °F - 66.9 °F 71% 30.11 in 10.0 mi South 5.8 mph - N/A   Clear
9:56 PM 73.0 °F - 66.9 °F 81% 30.14 in 10.0 mi East 4.6 mph - N/A   Partly Cloudy
10:56 PM 72.0 °F - 66.9 °F 84% 30.13 in 10.0 mi East 5.8 mph - N/A   Partly Cloudy
11:56 PM 71.1 °F - 66.9 °F 87% 30.11 in 10.0 mi East 5.8 mph - N/A   Clear